הכול
Enua Airport (Atiu (Enua Manu)) AIU מזג אוויר
|
Atiu (Enua Manu) (AIU / NCAT)
שמים בהירים
רוחות קלות |
|
23 °C |
There is no TAF data available at AIU or any nearby airports.
Recent AIU METAR history
| Date | Time (-10) | Flight Rules | Wind Dir. | Speed | Type | Height AGL (ft) | Visibility | Temp (°C) | Temp (°F) | Dew Point (°C) | Dew Point (°F) | Rel. Humid. | Pressure | Density Altitude | Remarks |
|---|---|---|---|---|---|---|---|---|---|---|---|---|---|---|---|
| 05-ספט | 04:30 | n/a | 50° | 5 kt | Missing | 23° | 73° | 21° | 69° | 89% | 1013 mb | 1,017 ft | |||
| 05-ספט | 04:00 | n/a | 50° | 6 kt | Missing | 23° | 73° | 21° | 69° | 89% | 1013 mb | 1,017 ft | |||
| 05-ספט | 03:30 | n/a | 50° | 5 kt | Missing | 23° | 73° | 21° | 69° | 89% | 1013 mb | 1,017 ft | |||
| 05-ספט | 03:00 | n/a | 50° | 6 kt | Missing | 23° | 73° | 21° | 69° | 89% | 1013 mb | 1,017 ft | |||
| 05-ספט | 02:30 | n/a | 40° | 8 kt | Missing | 23° | 73° | 21° | 69° | 89% | 1013 mb | 1,017 ft | |||
| 05-ספט | 02:00 | n/a | 50° | 6 kt | Missing | 23° | 73° | 21° | 69° | 89% | 1013 mb | 1,017 ft | |||
| 05-ספט | 01:30 | n/a | 60° | 5 kt | Missing | 23° | 73° | 21° | 69° | 89% | 1014 mb | 988 ft | |||
| 05-ספט | 01:00 | n/a | 60° | 7 kt | Missing | 23° | 73° | 21° | 69° | 89% | 1014 mb | 988 ft | |||
| 05-ספט | 00:30 | n/a | 70° | 4 kt | Missing | 23° | 73° | 21° | 69° | 89% | 1015 mb | 958 ft | |||
| 05-ספט | 00:00 | n/a | 70° | 4 kt | Missing | 23° | 73° | 21° | 69° | 89% | 1015 mb | 958 ft | |||
| 04-ספט | 23:30 | n/a | 80° | 4 kt | Missing | 23° | 73° | 21° | 69° | 89% | 1015 mb | 958 ft | |||
| 04-ספט | 23:00 | n/a | 80° | 4 kt | Missing | 23° | 73° | 21° | 69° | 89% | 1015 mb | 958 ft | |||
| 04-ספט | 22:30 | n/a | 60° | 3 kt | Missing | 23° | 73° | 21° | 69° | 89% | 1015 mb | 958 ft | |||
| 04-ספט | 22:00 | n/a | 90° | 4 kt | Missing | 23° | 73° | 21° | 69° | 89% | 1015 mb | 958 ft | |||
| 04-ספט | 21:30 | n/a | 110° | 3 kt | Missing | 23° | 73° | 21° | 69° | 89% | 1015 mb | 958 ft | |||
| 04-ספט | 21:00 | n/a | 130° | 3 kt | Missing | 23° | 73° | 21° | 69° | 89% | 1015 mb | 958 ft | |||
| 04-ספט | 20:30 | n/a | 140° | 3 kt | Missing | 23° | 73° | 21° | 69° | 89% | 1015 mb | 958 ft | |||
| 04-ספט | 20:00 | n/a | 130° | 3 kt | Missing | 23° | 73° | 21° | 69° | 89% | 1015 mb | 958 ft | |||
| 04-ספט | 19:30 | n/a | 120° | 3 kt | Missing | 23° | 73° | 21° | 69° | 89% | 1015 mb | 958 ft | |||
| 04-ספט | 19:00 | n/a | 110° | 3 kt | Missing | 23° | 73° | 21° | 69° | 89% | 1014 mb | 988 ft | |||
| 04-ספט | 18:30 | n/a | 150° | 3 kt | Missing | 23° | 73° | 21° | 69° | 89% | 1014 mb | 988 ft | |||
| 04-ספט | 18:00 | n/a | 120° | 3 kt | Missing | 24° | 75° | 21° | 69° | 83% | 1014 mb | 1,108 ft | |||
| 04-ספט | 17:30 | n/a | 130° | 3 kt | Missing | 24° | 75° | 21° | 69° | 83% | 1014 mb | 1,108 ft | |||
| 04-ספט | 17:00 | n/a | 140° | 3 kt | Missing | 25° | 77° | 21° | 69° | 79% | 1014 mb | 1,228 ft |
כניסה לאתר
| אין תמיכה בדפדפן שלך. שדרג את הדפדפן שלך |
